Location: Montr�al
(45.5000°N, 73.5830°W)
Time: 15:54:09
(UTC-04:00)

ISS - All Passes

Search period start: 25 July 2014 00:00
Search period end: 04 August 2014 00:00
Orbit: 411 x 420 km, 51.6° (Epoch: 25 July)

Date Brightness Start Highest point End Pass type
(mag) Time Alt. Az. Time Alt. Az. Time Alt. Az.
25 Jul - 00:35:23 10° SSE 00:37:01 13° SE 00:38:40 10° ESE visible
25 Jul - 02:09:55 10° WSW 02:13:16 82° SSE 02:16:38 10° ENE visible
25 Jul - 03:47:11 10° WNW 03:50:15 32° N 03:53:20 10° NE visible
25 Jul - 05:24:32 10° NW 05:27:34 30° N 05:30:36 10° ENE daylight
25 Jul - 07:01:14 10° WNW 07:04:37 85° NNE 07:07:59 10° ESE daylight
25 Jul - 08:38:49 10° W 08:40:57 16° SW 08:43:04 10° S daylight
26 Jul - 01:21:16 10° SW 01:24:32 51° SE 01:27:49 10° ENE visible
26 Jul - 02:58:10 10° W 03:01:21 38° NNW 03:04:32 10° NE visible
26 Jul - 04:35:40 10° WNW 04:38:38 28° N 04:41:36 10° ENE visible
26 Jul - 06:12:29 10° WNW 06:15:49 58° NNE 06:19:08 10° ESE daylight
26 Jul - 07:49:30 10° W 07:52:21 26° SW 07:55:11 10° SSE daylight
27 Jul - 00:32:52 10° SSW 00:35:52 31° SE 00:38:53 10° ENE visible
27 Jul - 02:09:12 10° W 02:12:29 50° NNW 02:15:47 10° NE visible
27 Jul - 03:46:45 10° WNW 03:49:42 27° N 03:52:40 10° ENE visible
27 Jul - 05:23:44 10° NW 05:26:58 42° NNE 05:30:12 10° E daylight
27 Jul - 07:00:31 10° WNW 07:03:43 41° SW 07:06:54 10° SE daylight
27 Jul - 23:44:47 10° S 23:47:15 19° SE 23:49:45 10° E night (unlit)
28 Jul - 01:20:20 10° WSW 01:23:41 71° NNW 01:27:03 10° ENE visible
28 Jul - 02:57:47 10° WNW 03:00:47 29° N 03:03:47 10° NE visible
28 Jul - 04:34:59 10° NW 04:38:06 34° NNE 04:41:13 10° E visible
28 Jul - 06:11:40 10° WNW 06:15:01 68° SSW 06:18:22 10° SE daylight
28 Jul - 07:50:30 10° WSW 07:51:11 11° SW 07:51:51 10° SW daylight
28 Jul - 22:57:26 10° SSE 22:58:44 12° SE 23:00:02 10° ESE night (unlit)
29 Jul - 00:31:35 10° SW 00:34:56 76° SSE 00:38:18 10° ENE visible
29 Jul - 02:08:48 10° WNW 02:11:53 33° NNW 02:14:59 10° NE visible
29 Jul - 03:46:12 10° NW 03:49:13 29° N 03:52:14 10° ENE visible
29 Jul - 05:22:54 10° WNW 05:26:17 79° NNE 05:29:39 10° ESE daylight
29 Jul - 07:00:21 10° W 07:02:40 17° SW 07:04:58 10° S daylight
29 Jul - 23:43:02 10° SW 23:46:15 46° SE 23:49:29 10° ENE visible
30 Jul - 01:19:50 10° W 01:23:02 40° NNW 01:26:14 10° NE visible
30 Jul - 02:57:21 10° WNW 03:00:19 28° N 03:03:16 10° ENE visible
30 Jul - 04:34:11 10° WNW 04:37:30 54° NNE 04:40:49 10° ESE visible
30 Jul - 06:11:09 10° W 06:14:06 28° SW 06:17:01 10° SSE daylight
30 Jul - 22:54:42 10° SSW 22:57:37 28° SE 23:00:34 10° ENE night (unlit)
31 Jul - 00:30:56 10° W 00:34:13 53° NNW 00:37:32 10° NE visible
31 Jul - 02:08:28 10° WNW 02:11:25 27° N 02:14:23 10° ENE visible
31 Jul - 03:45:29 10° NW 03:48:42 40° NNE 03:51:55 10° E visible
31 Jul - 05:22:14 10° WNW 05:25:29 45° SW 05:28:42 10° SE daylight
31 Jul - 22:06:45 10° S 22:09:04 18° SE 22:11:25 10° E night (unlit)
31 Jul - 23:42:07 10° WSW 23:45:27 77° NNW 23:48:50 10° ENE visible
01 Aug - 01:19:32 10° WNW 01:22:32 29° N 01:25:33 10° NE visible
01 Aug - 02:56:46 10° NW 02:59:52 33° NNE 03:02:58 10° E visible
01 Aug - 04:33:27 10° WNW 04:36:49 74° SSW 04:40:10 10° SE visible
01 Aug - 06:11:47 10° WSW 06:13:01 12° SW 06:14:14 10° SSW daylight
01 Aug - 21:19:47 10° SE 21:20:35 11° SE 21:21:24 10° ESE visible
01 Aug - 22:53:26 10° SW 22:56:45 69° SSE 23:00:06 10° ENE night (unlit)
02 Aug - 00:30:35 10° W 00:33:41 33° NNW 00:36:48 10° NE visible
02 Aug - 02:08:00 10° NW 02:11:00 29° N 02:14:01 10° ENE visible
02 Aug - 03:44:44 10° WNW 03:48:07 73° NNE 03:51:28 10° ESE visible
02 Aug - 05:22:04 10° W 05:24:31 19° SW 05:26:59 10° S daylight
02 Aug - 22:04:57 10° SW 22:08:07 42° SE 22:11:19 10° ENE visible
02 Aug - 23:41:40 10° W 23:44:52 41° NNW 23:48:06 10° NE visible
03 Aug - 01:19:12 10° WNW 01:22:09 27° N 01:25:06 10° ENE visible
03 Aug - 02:56:04 10° NW 02:59:22 51° NNE 03:02:40 10° E visible
03 Aug - 04:32:59 10° WNW 04:35:59 30° SW 04:38:59 10° SSE visible
03 Aug - 21:16:43 10° SSW 21:19:33 26° SE 21:22:24 10° E visible
03 Aug - 22:52:49 10° WSW 22:56:06 56° NNW 22:59:26 10° ENE visible
